,

(GMT )
Al Udeid

Weather History for KQIR - March, 2014

Change the Weather History Date:

Thursday, March 20, 2014

  Actual Average Record
Temperature  
Mean Temperature 78 °F -  
Max Temperature 88 °F - - ()
Min Temperature 67 °F - - ()
Cooling Degree Days 12    
Growing Degree Days 28 (Base 50)    
Moisture  
Dew Point 54 °F    
Average Humidity 51    
Maximum Humidity 88    
Minimum Humidity 18    
Precipitation  
Precipitation 0.00 in - - ()
Sea Level Pressure  
Sea Level Pressure 29.91 in    
Wind  
Wind Speed 7 mph ()    
Max Wind Speed 14 mph    
Max Gust Speed -    
Visibility 6.2 miles    
Events      
Averages and records for this station are not official NWS values.
T = Trace of Precipitation, MM = Missing Value Source: Averaged Metar Reports

Daily Weather History Graph

Daily Weather History Graph

Search for Another Location

Airport or City:

Astronomy

Mar. 20, 2014 Rise Set
Actual Time 5:39 AM +03 5:45 PM +03
Civil Twilight 5:16 AM +03 6:08 PM +03
Nautical Twilight 4:49 AM +03 6:35 PM +03
Astronomical Twilight 4:22 AM +03 7:01 PM +03
Moon 9:17 PM +03 (3/20) 7:50 AM +03 (3/20)
Length of Visible Light 12h 52m
Length of Day
12h 06m
Waning Gibbous, 86% of the Moon is Illuminated
Mar 20
Waning Gibbous
Mar 24
Last Quarter
Mar 30
New
Apr 7
First Quarter
Apr 15
Full

Hourly Weather History & Observations

Time (+03) Temp. Heat Index Dew Point Humidity Pressure Visibility Wind Dir Wind Speed Gust Speed Precip Events Conditions
12:55 AM 67.5 °F - 59.0 °F 74% 29.91 in 6.2 mi East 4.6 mph - N/A   Clear
1:55 AM 67.8 °F - 59.7 °F 75% 29.89 in 6.2 mi East 8.1 mph - N/A   Clear
2:55 AM 67.8 °F - 61.0 °F 79% 29.89 in 6.2 mi East 8.1 mph - N/A   Clear
3:55 AM 67.6 °F - 62.4 °F 83% 29.89 in 6.2 mi ENE 6.9 mph - N/A   Mostly Cloudy
4:55 AM 69.1 °F - 61.7 °F 77% 29.93 in 6.2 mi NNE 5.8 mph - N/A   Partly Cloudy
5:55 AM 68.5 °F - 61.3 °F 78% 29.95 in 6.2 mi East 4.6 mph - N/A   Partly Cloudy
6:55 AM 68.9 °F - 65.1 °F 88% 29.96 in 6.2 mi ENE 8.1 mph - N/A   Clear
7:55 AM 73.2 °F - 61.5 °F 67% 29.97 in 6.2 mi East 11.5 mph - N/A   Clear
8:55 AM 78.1 °F - 54.0 °F 43% 29.99 in 6.2 mi East 9.2 mph - N/A   Clear
9:55 AM 78.1 °F - 54.0 °F 43% 29.98 in 6.2 mi East 9.2 mph - N/A   Clear
10:57 AM 78.1 °F - 54.0 °F 43% 29.98 in 6.2 mi East 9.2 mph - N/A   Clear
11:55 AM 87.4 °F - 39.6 °F 18% 29.93 in 6.2 mi South 9.2 mph - N/A   Clear
12:55 PM 88.3 °F - 44.8 °F 22% 29.92 in 6.2 mi SSE 5.8 mph - N/A   Partly Cloudy
1:55 PM 88.3 °F - 42.1 °F 20% 29.90 in 6.2 mi Calm Calm - N/A   Clear
2:55 PM 87.4 °F 85.7 °F 54.9 °F 33% 29.89 in 6.2 mi East 11.5 mph - N/A   Clear
3:55 PM 87.3 °F - 43.2 °F 21% 29.88 in 6.2 mi East 13.8 mph - N/A   Clear
4:55 PM 84.9 °F - 41.7 °F 22% 29.88 in 6.2 mi East 11.5 mph - N/A   Clear
5:55 PM 81.0 °F - 49.1 °F 33% 29.88 in 6.2 mi ENE 9.2 mph - N/A   Clear
6:55 PM 77.4 °F - 55.9 °F 47% 29.90 in 6.2 mi ENE 6.9 mph - N/A   Clear
7:55 PM 75.4 °F - 56.7 °F 52% 29.90 in 6.2 mi ENE 6.9 mph - N/A   Clear
8:55 PM 73.6 °F - 56.3 °F 55% 29.90 in 6.2 mi ENE 6.9 mph - N/A   Clear
9:55 PM 72.3 °F - 56.1 °F 57% 29.89 in 6.2 mi East 8.1 mph - N/A   Clear
10:55 PM 73.2 °F - 48.9 °F 42% 29.88 in 6.2 mi ENE 8.1 mph - N/A   Clear
11:55 PM 72.3 °F - 50.0 °F 45% 29.85 in 6.2 mi East 9.2 mph - N/A   Clear